This demonstration page uses our WeatherBlox Daily Observations layout. Learn more.

Left ArrowRight Arrow

Hourly Observations for May 14, 2018

Temp ( °F °C ) Dew Point ( °F °C ) Humidity (%) Winds ( mph kmh ) Pressure ( in mb ) Visibility ( mi km ) Precip ( " mm )
12:53 am 00:53 Mostly Clear 57 13.9 45 7.2 64 64 SSW 6 9 29.98 1015 10 16 N/A
1:53 am 01:53 Mostly Cloudy 51 10.6 45 7.2 80 80 N N/A 29.99 1016 10 16 N/A
2:53 am 02:53 Clear 50 10 44 6.7 80 80 NNW 6 9 29.99 1016 10 16 N/A
3:53 am 03:53 Clear 45 7.2 42 5.6 90 90 SW 3 6 30.01 1016 10 16 N/A
4:53 am 04:53 Clear 44 6.7 41 5 89 89 N N/A 30.02 1017 10 16 N/A
5:53 am 05:53 Sunny 45 7.2 42 5.6 90 90 N N/A 30.02 1017 10 16 N/A
6:53 am 06:53 Sunny 49 9.4 43 6.1 80 80 E 5 7 30.03 1017 10 16 N/A
7:53 am 07:53 Sunny 54 12.2 42 5.6 64 64 E 6 9 30.04 1017 10 16 N/A
8:53 am 08:53 Sunny 59 15 44 6.7 58 58 ENE 5 7 30.04 1017 10 16 N/A
9:53 am 09:53 Sunny 64 17.8 41 5 43 43 ENE 9 15 30.04 1017 10 16 N/A
10:53 am 10:53 Sunny 68 20 40 4.4 36 36 E 9 15 30.03 1017 10 16 N/A
11:53 am 11:53 Sunny 71 21.7 42 5.6 35 35 E 9 15 30.03 1017 10 16 N/A
12:53 pm 12:53 Sunny 73 22.8 40 4.4 30 30 ENE 12 19 30.01 1016 10 16 N/A
1:53 pm 13:53 Sunny 75 23.9 38 3.3 26 26 NE 6 9 30.00 1016 10 16 N/A
2:53 pm 14:53 Sunny 76 24.4 36 2.2 23 23 undefined N/A 29.99 1016 10 16 N/A
3:53 pm 15:53 Sunny 76 24.4 37 2.8 24 24 N N/A 29.98 1015 10 16 N/A
4:53 pm 16:53 Sunny 76 24.4 40 4.4 27 27 SW 7 11 29.96 1015 10 16 N/A
5:53 pm 17:53 Sunny 76 24.4 41 5 29 29 WSW 7 11 29.96 1015 10 16 N/A
6:53 pm 18:53 Sunny 75 23.9 42 5.6 31 31 SW 7 11 29.94 1014 10 16 N/A
7:53 pm 19:53 Sunny 71 21.7 46 7.8 41 41 SW 7 11 29.93 1014 10 16 N/A
8:53 pm 20:53 Clear 66 18.9 45 7.2 47 47 S 5 7 29.93 1014 10 16 N/A
9:53 pm 21:53 Clear 59 15 46 7.8 62 62 S 12 19 29.94 1014 10 16 N/A
10:53 pm 22:53 Clear 58 14.4 44 6.7 60 60 S 10 17 29.93 1013 10 16 N/A
11:53 pm 23:53 Clear 57 13.9 43 6.1 60 60 SSE 9 15 29.91 1013 10 16 N/A

Powered by AerisWeather